Year,Month,Day,Hour,Minute,Value (Times are PST for temperature in C)
2011,05,24,00,00,9.40
2011,05,24,00,01,9.40
2011,05,24,00,02,9.40
2011,05,24,00,03,9.40
2011,05,24,00,04,9.30
2011,05,24,00,05,9.30
2011,05,24,00,06,9.30
2011,05,24,00,07,9.40
2011,05,24,00,08,9.40
2011,05,24,00,09,9.40
2011,05,24,00,10,9.40
2011,05,24,00,11,9.40
2011,05,24,00,12,9.40
2011,05,24,00,13,9.40
2011,05,24,00,14,9.40
2011,05,24,00,15,9.40
2011,05,24,00,16,9.40
2011,05,24,00,17,9.40
2011,05,24,00,18,9.40
2011,05,24,00,19,9.40
2011,05,24,00,20,9.40
2011,05,24,00,21,9.40
2011,05,24,00,22,9.30
2011,05,24,00,23,9.40
2011,05,24,00,24,9.40
2011,05,24,00,25,9.40
2011,05,24,00,26,9.40
2011,05,24,00,27,9.40
2011,05,24,00,28,9.40
2011,05,24,00,29,9.40
2011,05,24,00,30,9.30
2011,05,24,00,31,9.30
2011,05,24,00,32,9.30
2011,05,24,00,33,9.30
2011,05,24,00,34,9.30
2011,05,24,00,35,9.30
2011,05,24,00,36,9.30
2011,05,24,00,37,9.30
2011,05,24,00,38,9.30
2011,05,24,00,39,9.20
2011,05,24,00,40,9.20
2011,05,24,00,41,9.20
2011,05,24,00,42,9.20
2011,05,24,00,43,9.20
2011,05,24,00,44,9.20
2011,05,24,00,45,9.20
2011,05,24,00,46,9.20
2011,05,24,00,47,9.20
2011,05,24,00,48,9.20
2011,05,24,00,49,9.10
2011,05,24,00,50,9.10
2011,05,24,00,51,9.10
2011,05,24,00,52,9.10
2011,05,24,00,53,9.10
2011,05,24,00,54,9.10
2011,05,24,00,55,9.10
2011,05,24,00,56,9.10
2011,05,24,00,57,9.10
2011,05,24,00,58,9.10
2011,05,24,00,59,9.10
2011,05,24,01,00,9.10
2011,05,24,01,01,9.00
2011,05,24,01,02,9.00
2011,05,24,01,03,9.00
2011,05,24,01,04,9.00
2011,05,24,01,05,9.00
2011,05,24,01,06,9.00
2011,05,24,01,07,9.00
2011,05,24,01,08,9.00
2011,05,24,01,09,9.00
2011,05,24,01,10,9.00
2011,05,24,01,11,9.00
2011,05,24,01,12,9.00
2011,05,24,01,13,9.00
2011,05,24,01,14,9.00
2011,05,24,01,15,9.00
2011,05,24,01,16,8.90
2011,05,24,01,17,8.90
2011,05,24,01,18,8.90
2011,05,24,01,19,8.90
2011,05,24,01,20,8.90
2011,05,24,01,21,8.90
2011,05,24,01,22,8.90
2011,05,24,01,23,8.90
2011,05,24,01,24,8.90
2011,05,24,01,25,8.90
2011,05,24,01,26,8.90
2011,05,24,01,27,8.90
2011,05,24,01,28,8.90
2011,05,24,01,29,8.80
2011,05,24,01,30,8.80
2011,05,24,01,31,8.80
2011,05,24,01,32,8.70
2011,05,24,01,33,8.70
2011,05,24,01,34,8.70
2011,05,24,01,35,8.70
2011,05,24,01,36,8.60
2011,05,24,01,37,8.60
2011,05,24,01,38,8.60
2011,05,24,01,39,8.60
2011,05,24,01,40,8.50
2011,05,24,01,41,8.50
2011,05,24,01,42,8.40
2011,05,24,01,43,8.40
2011,05,24,01,44,8.40
2011,05,24,01,45,8.40
2011,05,24,01,46,8.40
2011,05,24,01,47,8.30
2011,05,24,01,48,8.30
2011,05,24,01,49,8.30
2011,05,24,01,50,8.30
2011,05,24,01,51,8.30
2011,05,24,01,52,8.30
2011,05,24,01,53,8.30
2011,05,24,01,54,8.30
2011,05,24,01,55,8.30
2011,05,24,01,56,8.30
2011,05,24,01,57,8.30
2011,05,24,01,58,8.30
2011,05,24,01,59,8.30
2011,05,24,02,00,8.20
2011,05,24,02,01,8.20
2011,05,24,02,02,8.20
2011,05,24,02,03,8.20
2011,05,24,02,04,8.20
2011,05,24,02,05,8.10
2011,05,24,02,06,8.10
2011,05,24,02,07,8.10
2011,05,24,02,08,8.10
2011,05,24,02,09,8.00
2011,05,24,02,10,8.00
2011,05,24,02,11,8.00
2011,05,24,02,12,7.90
2011,05,24,02,13,7.90
2011,05,24,02,14,7.90
2011,05,24,02,15,7.90
2011,05,24,02,16,7.90
2011,05,24,02,17,7.90
2011,05,24,02,18,7.90
2011,05,24,02,19,7.80
2011,05,24,02,20,7.90
2011,05,24,02,21,7.90
2011,05,24,02,22,7.90
2011,05,24,02,23,7.90
2011,05,24,02,24,7.90
2011,05,24,02,25,7.90
2011,05,24,02,26,7.90
2011,05,24,02,27,7.90
2011,05,24,02,28,7.90
2011,05,24,02,29,7.90
2011,05,24,02,30,7.90
2011,05,24,02,31,7.90
2011,05,24,02,32,7.90
2011,05,24,02,33,7.90
2011,05,24,02,34,7.90
2011,05,24,02,35,7.90
2011,05,24,02,36,7.90
2011,05,24,02,37,7.90
2011,05,24,02,38,7.80
2011,05,24,02,39,7.80
2011,05,24,02,40,7.80
2011,05,24,02,41,7.80
2011,05,24,02,42,7.80
2011,05,24,02,43,7.80
2011,05,24,02,44,7.80
2011,05,24,02,45,7.70
2011,05,24,02,46,7.70
2011,05,24,02,47,7.70
2011,05,24,02,48,7.70
2011,05,24,02,49,7.70
2011,05,24,02,50,7.70
2011,05,24,02,51,7.70
2011,05,24,02,52,7.60
2011,05,24,02,53,7.60
2011,05,24,02,54,7.60
2011,05,24,02,55,7.60
2011,05,24,02,56,7.60
2011,05,24,02,57,7.50
2011,05,24,02,58,7.50
2011,05,24,02,59,7.50
2011,05,24,03,00,7.50
2011,05,24,03,01,7.40
2011,05,24,03,02,7.40
2011,05,24,03,06,7.30
2011,05,24,03,07,7.30
2011,05,24,03,08,7.30
2011,05,24,03,09,7.30
2011,05,24,03,10,7.30
2011,05,24,03,11,7.30
2011,05,24,03,12,7.30
2011,05,24,03,13,7.20
2011,05,24,03,14,7.20
2011,05,24,03,15,7.20
2011,05,24,03,16,7.20
2011,05,24,03,17,7.20
2011,05,24,03,18,7.20
2011,05,24,03,19,7.20
2011,05,24,03,20,7.20
2011,05,24,03,21,7.20
2011,05,24,03,22,7.20
2011,05,24,03,23,7.20
2011,05,24,03,24,7.10
2011,05,24,03,25,7.10
2011,05,24,03,26,7.10
2011,05,24,03,27,7.10
2011,05,24,03,28,7.00
2011,05,24,03,29,7.00
2011,05,24,03,30,7.00
2011,05,24,03,31,7.00
2011,05,24,03,32,7.00
2011,05,24,03,33,6.90
2011,05,24,03,34,6.90
2011,05,24,03,35,6.90
2011,05,24,03,36,6.90
2011,05,24,03,37,6.90
2011,05,24,03,38,6.90
2011,05,24,03,39,6.90
2011,05,24,03,40,6.90
2011,05,24,03,41,6.90
2011,05,24,03,42,6.90
2011,05,24,03,43,6.80
2011,05,24,03,44,6.80
2011,05,24,03,45,6.80
2011,05,24,03,46,6.80
2011,05,24,03,47,6.80
2011,05,24,03,48,6.90
2011,05,24,03,49,6.90
2011,05,24,03,50,6.80
2011,05,24,03,51,6.80
2011,05,24,03,52,6.80
2011,05,24,03,53,6.80
2011,05,24,03,54,6.80
2011,05,24,03,55,6.80
2011,05,24,03,56,6.80
2011,05,24,03,57,6.80
2011,05,24,03,58,6.80
2011,05,24,03,59,6.80
2011,05,24,04,00,6.80
2011,05,24,04,01,6.80
2011,05,24,04,02,6.80
2011,05,24,04,03,6.80
2011,05,24,04,04,6.80
2011,05,24,04,05,6.80
2011,05,24,04,06,6.80
2011,05,24,04,07,6.80
2011,05,24,04,08,6.80
2011,05,24,04,09,6.80
2011,05,24,04,10,6.80
2011,05,24,04,11,6.80
2011,05,24,04,12,6.80
2011,05,24,04,13,6.80
2011,05,24,04,14,6.80
2011,05,24,04,15,6.80
2011,05,24,04,16,6.80
2011,05,24,04,17,6.80
2011,05,24,04,18,6.70
2011,05,24,04,19,6.70
2011,05,24,04,20,6.70
2011,05,24,04,21,6.70
2011,05,24,04,22,6.70
2011,05,24,04,23,6.70
2011,05,24,04,24,6.70
2011,05,24,04,25,6.70
2011,05,24,04,26,6.70
2011,05,24,04,27,6.70
2011,05,24,04,28,6.70
2011,05,24,04,29,6.70
2011,05,24,04,30,6.70
2011,05,24,04,31,6.70
2011,05,24,04,32,6.60
2011,05,24,04,33,6.60
2011,05,24,04,34,6.60
2011,05,24,04,35,6.60
2011,05,24,04,36,6.60
2011,05,24,04,37,6.60
2011,05,24,04,38,6.60
2011,05,24,04,39,6.60
2011,05,24,04,40,6.60
2011,05,24,04,41,6.60
2011,05,24,04,42,6.60
2011,05,24,04,43,6.50
2011,05,24,04,44,6.50
2011,05,24,04,45,6.50
2011,05,24,04,46,6.50
2011,05,24,04,47,6.50
2011,05,24,04,48,6.50
2011,05,24,04,49,6.50
2011,05,24,04,50,6.40
2011,05,24,04,51,6.50
2011,05,24,04,52,6.40
2011,05,24,04,53,6.40
2011,05,24,04,54,6.40
2011,05,24,04,55,6.40
2011,05,24,04,56,6.40
2011,05,24,04,57,6.40
2011,05,24,04,58,6.40
2011,05,24,04,59,6.40
2011,05,24,05,00,6.40
2011,05,24,05,01,6.40
2011,05,24,05,02,6.40
2011,05,24,05,03,6.40
2011,05,24,05,04,6.30
2011,05,24,05,05,6.30
2011,05,24,05,06,6.30
2011,05,24,05,07,6.30
2011,05,24,05,08,6.30
2011,05,24,05,09,6.20
2011,05,24,05,10,6.20
2011,05,24,05,11,6.20
2011,05,24,05,12,6.20
2011,05,24,05,13,6.20
2011,05,24,05,14,6.20
2011,05,24,05,15,6.20
2011,05,24,05,16,6.20
2011,05,24,05,17,6.20
2011,05,24,05,18,6.20
2011,05,24,05,19,6.20
2011,05,24,05,20,6.10
2011,05,24,05,21,6.10
2011,05,24,05,22,6.10
2011,05,24,05,23,6.10
2011,05,24,05,24,6.10
2011,05,24,05,25,6.10
2011,05,24,05,26,6.10
2011,05,24,05,27,6.10
2011,05,24,05,28,6.10
2011,05,24,05,29,6.00
2011,05,24,05,30,6.00
2011,05,24,05,31,6.00
2011,05,24,05,32,6.00
2011,05,24,05,33,6.00
2011,05,24,05,34,6.00
2011,05,24,05,35,6.00
2011,05,24,05,36,6.00
2011,05,24,05,37,5.90
2011,05,24,05,38,5.90
2011,05,24,05,39,5.90
2011,05,24,05,40,5.90
2011,05,24,05,41,5.90
2011,05,24,05,42,5.90
2011,05,24,05,43,5.90
2011,05,24,05,44,5.90
2011,05,24,05,45,5.90
2011,05,24,05,46,6.00
2011,05,24,05,47,6.00
2011,05,24,05,48,6.00
2011,05,24,05,49,6.00
2011,05,24,05,50,6.00
2011,05,24,05,51,6.10
2011,05,24,05,52,6.10
2011,05,24,05,53,6.10
2011,05,24,05,54,6.10
2011,05,24,05,55,6.10
2011,05,24,05,56,6.10
2011,05,24,05,57,6.10
2011,05,24,05,58,6.10
2011,05,24,05,59,6.10
2011,05,24,06,00,6.10
2011,05,24,06,01,6.10
2011,05,24,06,02,6.10
2011,05,24,06,03,6.10
2011,05,24,06,04,6.20
2011,05,24,06,05,6.20
2011,05,24,06,06,6.20
2011,05,24,06,07,6.20
2011,05,24,06,08,6.20
2011,05,24,06,09,6.20
2011,05,24,06,10,6.20
2011,05,24,06,11,6.20
2011,05,24,06,12,6.20
2011,05,24,06,13,6.30
2011,05,24,06,14,6.30
2011,05,24,06,15,6.30
2011,05,24,06,16,6.30
2011,05,24,06,17,6.40
2011,05,24,06,18,6.40
2011,05,24,06,19,6.50
2011,05,24,06,20,6.60
2011,05,24,06,21,6.70
2011,05,24,06,22,6.70
2011,05,24,06,23,6.80
2011,05,24,06,24,6.90
2011,05,24,06,25,6.90
2011,05,24,06,26,7.00
2011,05,24,06,27,7.00
2011,05,24,06,28,7.00
2011,05,24,06,29,7.10
2011,05,24,06,30,7.10
2011,05,24,06,31,7.10
2011,05,24,06,32,7.10
2011,05,24,06,33,7.20
2011,05,24,06,34,7.20
2011,05,24,06,35,7.30
2011,05,24,06,36,7.30
2011,05,24,06,37,7.40
2011,05,24,06,38,7.40
2011,05,24,06,39,7.50
2011,05,24,06,40,7.60
2011,05,24,06,41,7.60
2011,05,24,06,42,7.60
2011,05,24,06,43,7.70
2011,05,24,06,44,7.70
2011,05,24,06,45,7.70
2011,05,24,06,46,7.80
2011,05,24,06,47,7.80
2011,05,24,06,48,7.80
2011,05,24,06,49,7.90
2011,05,24,06,50,8.00
2011,05,24,06,51,8.00
2011,05,24,06,52,8.10
2011,05,24,06,53,8.20
2011,05,24,06,54,8.30
2011,05,24,06,55,8.30
2011,05,24,06,56,8.40
2011,05,24,06,57,8.50
2011,05,24,06,58,8.70
2011,05,24,06,59,8.80
2011,05,24,07,00,9.00
2011,05,24,07,01,9.10
2011,05,24,07,02,9.30
2011,05,24,07,03,9.40
2011,05,24,07,04,9.40
2011,05,24,07,05,9.50
2011,05,24,07,06,9.60
2011,05,24,07,07,9.60
2011,05,24,07,08,9.70
2011,05,24,07,09,9.80
2011,05,24,07,10,9.90
2011,05,24,07,11,10.00
2011,05,24,07,12,10.00
2011,05,24,07,13,10.10
2011,05,24,07,14,10.10
2011,05,24,07,15,10.20
2011,05,24,07,16,10.20
2011,05,24,07,17,10.30
2011,05,24,07,18,10.30
2011,05,24,07,19,10.30
2011,05,24,07,20,10.40
2011,05,24,07,21,10.40
2011,05,24,07,22,10.50
2011,05,24,07,23,10.60
2011,05,24,07,24,10.70
2011,05,24,07,25,10.80
2011,05,24,07,26,10.90
2011,05,24,07,27,10.90
2011,05,24,07,28,10.90
2011,05,24,07,29,10.90
2011,05,24,07,30,10.90
2011,05,24,07,31,11.00
2011,05,24,07,32,11.10
2011,05,24,07,33,11.20
2011,05,24,07,34,11.20
2011,05,24,07,35,11.00
2011,05,24,07,36,10.90
2011,05,24,07,37,10.80
2011,05,24,07,38,10.80
2011,05,24,07,39,10.80
2011,05,24,07,40,10.80
2011,05,24,07,41,10.80
2011,05,24,07,42,10.90
2011,05,24,07,43,10.90
2011,05,24,07,44,11.10
2011,05,24,07,45,11.20
2011,05,24,07,46,11.20
2011,05,24,07,47,11.10
2011,05,24,07,48,11.00
2011,05,24,07,49,10.90
2011,05,24,07,50,10.90
2011,05,24,07,51,10.90
2011,05,24,07,52,11.00
2011,05,24,07,53,11.00
2011,05,24,07,54,11.10
2011,05,24,07,55,11.20
2011,05,24,07,56,11.30
2011,05,24,07,57,11.40
2011,05,24,07,58,11.50
2011,05,24,07,59,11.50
2011,05,24,08,00,11.60
2011,05,24,08,01,11.60
2011,05,24,08,02,11.70
2011,05,24,08,03,11.70
2011,05,24,08,04,11.80
2011,05,24,08,05,11.80
2011,05,24,08,06,11.80
2011,05,24,08,07,11.80
2011,05,24,08,08,11.70
2011,05,24,08,09,11.70
2011,05,24,08,10,11.70
2011,05,24,08,11,11.70
2011,05,24,08,12,11.70
2011,05,24,08,13,11.70
2011,05,24,08,14,11.80
2011,05,24,08,15,11.70
2011,05,24,08,16,11.70
2011,05,24,08,17,11.70
2011,05,24,08,18,11.70
2011,05,24,08,19,11.70
2011,05,24,08,20,11.70
2011,05,24,08,21,11.80
2011,05,24,08,22,11.80
2011,05,24,08,23,11.90
2011,05,24,08,24,12.00
2011,05,24,08,25,12.10
2011,05,24,08,26,12.00
2011,05,24,08,27,12.00
2011,05,24,08,28,12.00
2011,05,24,08,29,12.10
2011,05,24,08,30,12.10
2011,05,24,08,31,12.10
2011,05,24,08,32,12.10
2011,05,24,08,33,12.10
2011,05,24,08,34,12.00
2011,05,24,08,35,12.00
2011,05,24,08,36,11.90
2011,05,24,08,37,11.80
2011,05,24,08,38,11.80
2011,05,24,08,39,11.60
2011,05,24,08,40,11.60
2011,05,24,08,41,11.60
2011,05,24,08,42,11.50
2011,05,24,08,43,11.50
2011,05,24,08,44,11.50
2011,05,24,08,45,11.50
2011,05,24,08,46,11.50
2011,05,24,08,47,11.50
2011,05,24,08,48,11.50
2011,05,24,08,49,11.60
2011,05,24,08,50,11.60
2011,05,24,08,51,11.70
2011,05,24,08,52,11.70
2011,05,24,08,53,11.80
2011,05,24,08,54,11.90
2011,05,24,08,55,11.90
2011,05,24,08,56,12.00
2011,05,24,08,57,12.00
2011,05,24,08,58,12.00
2011,05,24,08,59,11.90
2011,05,24,09,00,11.80
2011,05,24,09,01,11.70
2011,05,24,09,02,11.60
2011,05,24,09,03,11.60
2011,05,24,09,04,11.60
2011,05,24,09,05,11.60
2011,05,24,09,06,11.60
2011,05,24,09,07,11.60
2011,05,24,09,08,11.60
2011,05,24,09,09,11.50
2011,05,24,09,10,11.40
2011,05,24,09,11,11.40
2011,05,24,09,12,11.40
2011,05,24,09,13,11.40
2011,05,24,09,14,11.50
2011,05,24,09,15,11.50
2011,05,24,09,16,11.50
2011,05,24,09,17,11.50
2011,05,24,09,18,11.60
2011,05,24,09,19,11.50
2011,05,24,09,20,11.50
2011,05,24,09,21,11.50
2011,05,24,09,22,11.60
2011,05,24,09,23,11.50
2011,05,24,09,24,11.50
2011,05,24,09,25,11.50
2011,05,24,09,26,11.50
2011,05,24,09,27,11.50
2011,05,24,09,28,11.60
2011,05,24,09,29,11.70
2011,05,24,09,30,11.80
2011,05,24,09,31,11.90
2011,05,24,09,32,12.00
2011,05,24,09,33,12.10
2011,05,24,09,34,12.20
2011,05,24,09,35,12.30
2011,05,24,09,36,12.50
2011,05,24,09,37,12.60
2011,05,24,09,38,12.70
2011,05,24,09,39,12.80
2011,05,24,09,40,12.90
2011,05,24,09,41,13.00
2011,05,24,09,42,13.10
2011,05,24,09,43,13.10
2011,05,24,09,44,13.10
2011,05,24,09,45,13.10
2011,05,24,09,46,13.20
2011,05,24,09,47,13.30
2011,05,24,09,48,13.40
2011,05,24,09,49,13.60
2011,05,24,09,50,13.70
2011,05,24,09,51,13.80
2011,05,24,09,52,13.90
2011,05,24,09,53,14.00
2011,05,24,09,54,14.10
2011,05,24,09,55,14.10
2011,05,24,09,56,14.20
2011,05,24,09,57,14.30
2011,05,24,09,58,14.30
2011,05,24,09,59,14.20
2011,05,24,10,00,14.30
2011,05,24,10,01,14.20
2011,05,24,10,02,14.20
2011,05,24,10,03,14.00
2011,05,24,10,04,13.80
2011,05,24,10,05,13.60
2011,05,24,10,06,13.60
2011,05,24,10,07,13.70
2011,05,24,10,08,13.80
2011,05,24,10,09,13.90
2011,05,24,10,10,14.00
2011,05,24,10,11,14.10
2011,05,24,10,12,14.10
2011,05,24,10,13,14.10
2011,05,24,10,14,14.10
2011,05,24,10,15,14.10
2011,05,24,10,16,14.10
2011,05,24,10,17,14.20
2011,05,24,10,18,14.20
2011,05,24,10,19,14.30
2011,05,24,10,20,14.40
2011,05,24,10,21,14.50
2011,05,24,10,22,14.40
2011,05,24,10,23,14.40
2011,05,24,10,24,14.20
2011,05,24,10,25,14.20
2011,05,24,10,26,14.10
2011,05,24,10,27,14.10
2011,05,24,10,28,14.10
2011,05,24,10,29,14.10
2011,05,24,10,30,14.20
2011,05,24,10,31,14.20
2011,05,24,10,32,14.30
2011,05,24,10,33,14.30
2011,05,24,10,34,14.20
2011,05,24,10,35,14.10
2011,05,24,10,36,14.00
2011,05,24,10,37,13.90
2011,05,24,10,38,14.00
2011,05,24,10,39,14.10
2011,05,24,10,40,14.10
2011,05,24,10,41,14.10
2011,05,24,10,42,14.20
2011,05,24,10,43,14.20
2011,05,24,10,44,14.20
2011,05,24,10,45,14.30
2011,05,24,10,46,14.20
2011,05,24,10,47,14.10
2011,05,24,10,48,14.00
2011,05,24,10,49,13.90
2011,05,24,10,50,13.90
2011,05,24,10,51,14.00
2011,05,24,10,52,14.10
2011,05,24,10,53,14.00
2011,05,24,10,54,14.00
2011,05,24,10,55,14.20
2011,05,24,10,56,14.40
2011,05,24,10,57,14.60
2011,05,24,10,58,14.70
2011,05,24,10,59,14.80
2011,05,24,11,00,14.80
2011,05,24,11,01,14.80
2011,05,24,11,02,14.80
2011,05,24,11,03,14.80
2011,05,24,11,04,14.70
2011,05,24,11,05,14.60
2011,05,24,11,06,14.60
2011,05,24,11,07,14.50
2011,05,24,11,08,14.60
2011,05,24,11,09,14.90
2011,05,24,11,10,15.00
2011,05,24,11,11,15.00
2011,05,24,11,12,15.00
2011,05,24,11,13,15.00
2011,05,24,11,14,15.00
2011,05,24,11,15,14.90
2011,05,24,11,16,14.80
2011,05,24,11,17,14.80
2011,05,24,11,18,14.80
2011,05,24,11,19,14.90
2011,05,24,11,20,15.00
2011,05,24,11,21,15.00
2011,05,24,11,22,15.20
2011,05,24,11,23,15.30
2011,05,24,11,24,15.40
2011,05,24,11,25,15.40
2011,05,24,11,26,15.10
2011,05,24,11,27,14.90
2011,05,24,11,28,14.90
2011,05,24,11,29,15.00
2011,05,24,11,30,15.00
2011,05,24,11,31,15.00
2011,05,24,11,32,15.20
2011,05,24,11,33,15.20
2011,05,24,11,34,15.00
2011,05,24,11,35,14.80
2011,05,24,11,36,14.60
2011,05,24,11,37,14.50
2011,05,24,11,38,14.60
2011,05,24,11,39,14.60
2011,05,24,11,40,14.70
2011,05,24,11,41,14.80
2011,05,24,11,42,14.70
2011,05,24,11,43,14.80
2011,05,24,11,44,15.00
2011,05,24,11,45,15.00
2011,05,24,11,46,15.10
2011,05,24,11,47,15.30
2011,05,24,11,48,15.30
2011,05,24,11,49,15.30
2011,05,24,11,50,15.40
2011,05,24,11,51,15.50
2011,05,24,11,52,15.40
2011,05,24,11,53,15.10
2011,05,24,11,54,15.00
2011,05,24,11,55,14.80
2011,05,24,11,56,14.90
2011,05,24,11,57,15.00
2011,05,24,11,58,15.30
2011,05,24,11,59,15.60
2011,05,24,12,00,15.60
2011,05,24,12,01,15.60
2011,05,24,12,02,15.60
2011,05,24,12,03,15.70
2011,05,24,12,04,15.60
2011,05,24,12,05,15.50
2011,05,24,12,06,15.50
2011,05,24,12,07,15.60
2011,05,24,12,08,15.60
2011,05,24,12,09,15.60
2011,05,24,12,10,15.50
2011,05,24,12,11,15.50
2011,05,24,12,12,15.40
2011,05,24,12,13,15.20
2011,05,24,12,14,15.10
2011,05,24,12,15,15.00
2011,05,24,12,16,15.00
2011,05,24,12,17,14.90
2011,05,24,12,18,14.80
2011,05,24,12,19,14.70
2011,05,24,12,20,14.70
2011,05,24,12,21,14.70
2011,05,24,12,22,14.70
2011,05,24,12,23,14.70
2011,05,24,12,24,14.60
2011,05,24,12,25,14.60
2011,05,24,12,26,14.70
2011,05,24,12,27,14.80
2011,05,24,12,28,14.90
2011,05,24,12,29,14.80
2011,05,24,12,30,15.00
2011,05,24,12,31,15.00
2011,05,24,12,32,15.00
2011,05,24,12,33,15.30
2011,05,24,12,34,15.60
2011,05,24,12,35,15.70
2011,05,24,12,36,15.70
2011,05,24,12,37,15.80
2011,05,24,12,38,15.90
2011,05,24,12,39,16.10
2011,05,24,12,40,16.10
2011,05,24,12,41,16.20
2011,05,24,12,42,16.10
2011,05,24,12,43,15.80
2011,05,24,12,44,15.70
2011,05,24,12,45,15.40
2011,05,24,12,46,15.10
2011,05,24,12,47,15.00
2011,05,24,12,48,15.00
2011,05,24,12,49,15.00
2011,05,24,12,50,15.10
2011,05,24,12,51,15.00
2011,05,24,12,52,14.90
2011,05,24,12,53,15.00
2011,05,24,12,54,15.10
2011,05,24,12,55,15.30
2011,05,24,12,56,15.40
2011,05,24,12,57,15.40
2011,05,24,12,58,15.40
2011,05,24,12,59,15.30
2011,05,24,13,00,15.10
2011,05,24,13,01,15.20
2011,05,24,13,02,15.30
2011,05,24,13,03,15.40
2011,05,24,13,04,15.50
2011,05,24,13,05,15.40
2011,05,24,13,06,15.30
2011,05,24,13,07,15.20
2011,05,24,13,08,15.10
2011,05,24,13,09,15.00
2011,05,24,13,10,14.90
2011,05,24,13,11,15.00
2011,05,24,13,12,15.00
2011,05,24,13,13,15.00
2011,05,24,13,14,15.00
2011,05,24,13,15,15.00
2011,05,24,13,16,15.20
2011,05,24,13,17,15.10
2011,05,24,13,18,15.00
2011,05,24,13,19,15.00
2011,05,24,13,20,15.00
2011,05,24,13,21,15.00
2011,05,24,13,22,15.00
2011,05,24,13,23,15.00
2011,05,24,13,24,14.90
2011,05,24,13,25,14.70
2011,05,24,13,26,14.60
2011,05,24,13,27,14.60
2011,05,24,13,28,14.50
2011,05,24,13,29,14.50
2011,05,24,13,30,14.60
2011,05,24,13,31,14.70
2011,05,24,13,32,14.80
2011,05,24,13,33,14.90
2011,05,24,13,34,14.80
2011,05,24,13,35,14.90
2011,05,24,13,36,15.00
2011,05,24,13,37,14.90
2011,05,24,13,38,14.80
2011,05,24,13,39,14.80
2011,05,24,13,40,14.70
2011,05,24,13,41,14.70
2011,05,24,13,42,14.70
2011,05,24,13,43,14.70
2011,05,24,13,44,14.70
2011,05,24,13,45,14.80
2011,05,24,13,46,14.80
2011,05,24,13,47,14.80
2011,05,24,13,48,14.90
2011,05,24,13,49,15.00
2011,05,24,13,50,15.00
2011,05,24,13,51,15.00
2011,05,24,13,52,15.00
2011,05,24,13,53,15.10
2011,05,24,13,54,15.10
2011,05,24,13,55,15.10
2011,05,24,13,56,15.00
2011,05,24,13,57,15.00
2011,05,24,13,58,15.00
2011,05,24,13,59,15.10
2011,05,24,14,00,15.20
2011,05,24,14,01,15.20
2011,05,24,14,02,15.00
2011,05,24,14,03,15.00
2011,05,24,14,04,15.10
2011,05,24,14,05,15.20
2011,05,24,14,06,15.30
2011,05,24,14,07,15.20
2011,05,24,14,08,15.10
2011,05,24,14,09,15.20
2011,05,24,14,10,15.40
2011,05,24,14,11,15.50
2011,05,24,14,12,15.60
2011,05,24,14,13,15.70
2011,05,24,14,14,15.70
2011,05,24,14,15,15.90
2011,05,24,14,16,15.90
2011,05,24,14,17,15.80
2011,05,24,14,18,15.70
2011,05,24,14,19,15.70
2011,05,24,14,20,15.70
2011,05,24,14,21,15.70
2011,05,24,14,22,15.70
2011,05,24,14,23,15.80
2011,05,24,14,24,15.60
2011,05,24,14,25,15.50
2011,05,24,14,26,15.60
2011,05,24,14,27,15.60
2011,05,24,14,28,15.60
2011,05,24,14,29,15.80
2011,05,24,14,30,15.90
2011,05,24,14,31,16.00
2011,05,24,14,32,16.10
2011,05,24,14,33,16.20
2011,05,24,14,34,16.20
2011,05,24,14,35,16.10
2011,05,24,14,36,16.10
2011,05,24,14,37,16.00
2011,05,24,14,38,16.00
2011,05,24,14,39,15.90
2011,05,24,14,40,15.80
2011,05,24,14,41,15.80
2011,05,24,14,42,15.90
2011,05,24,14,43,15.90
2011,05,24,14,44,15.90
2011,05,24,14,45,15.80
2011,05,24,14,46,15.80
2011,05,24,14,47,15.70
2011,05,24,14,48,15.60
2011,05,24,14,49,15.60
2011,05,24,14,50,15.60
2011,05,24,14,51,15.70
2011,05,24,14,52,15.80
2011,05,24,14,53,15.90
2011,05,24,14,54,16.00
2011,05,24,14,55,15.90
2011,05,24,14,56,15.90
2011,05,24,14,57,16.00
2011,05,24,14,58,16.00
2011,05,24,14,59,16.00
2011,05,24,15,00,15.80
2011,05,24,15,01,15.80
2011,05,24,15,02,15.80
2011,05,24,15,03,15.90
2011,05,24,15,04,15.90
2011,05,24,15,05,15.90
2011,05,24,15,06,15.90
2011,05,24,15,07,15.90
2011,05,24,15,08,16.00
2011,05,24,15,09,16.00
2011,05,24,15,10,15.90
2011,05,24,15,11,15.90
2011,05,24,15,12,15.90
2011,05,24,15,13,15.80
2011,05,24,15,14,15.90
2011,05,24,15,15,15.90
2011,05,24,15,16,15.90
2011,05,24,15,17,16.10
2011,05,24,15,18,16.10
2011,05,24,15,19,16.20
2011,05,24,15,20,16.30
2011,05,24,15,21,16.30
2011,05,24,15,22,16.20
2011,05,24,15,23,16.00
2011,05,24,15,24,15.90
2011,05,24,15,25,15.80
2011,05,24,15,26,15.80
2011,05,24,15,27,15.70
2011,05,24,15,28,15.70
2011,05,24,15,29,15.70
2011,05,24,15,30,15.70
2011,05,24,15,31,15.70
2011,05,24,15,32,15.80
2011,05,24,15,33,15.80
2011,05,24,15,34,15.80
2011,05,24,15,35,15.80
2011,05,24,15,36,15.70
2011,05,24,15,37,15.70
2011,05,24,15,38,15.70
2011,05,24,15,39,15.70
2011,05,24,15,40,15.80
2011,05,24,15,41,15.70
2011,05,24,15,42,15.70
2011,05,24,15,43,15.70
2011,05,24,15,44,15.80
2011,05,24,15,45,15.90
2011,05,24,15,46,16.00
2011,05,24,15,47,16.10
2011,05,24,15,48,16.10
2011,05,24,15,49,16.10
2011,05,24,15,50,16.10
2011,05,24,15,51,16.00
2011,05,24,15,52,16.00
2011,05,24,15,53,15.90
2011,05,24,15,54,15.80
2011,05,24,15,55,15.90
2011,05,24,15,56,15.90
2011,05,24,15,57,15.90
2011,05,24,15,58,15.90
2011,05,24,15,59,16.00
2011,05,24,16,00,16.10
2011,05,24,16,01,16.10
2011,05,24,16,02,16.10
2011,05,24,16,03,16.10
2011,05,24,16,04,15.90
2011,05,24,16,05,15.70
2011,05,24,16,06,15.60
2011,05,24,16,07,15.70
2011,05,24,16,08,15.80
2011,05,24,16,09,15.90
2011,05,24,16,10,16.00
2011,05,24,16,11,15.90
2011,05,24,16,12,15.90
2011,05,24,16,13,16.00
2011,05,24,16,14,16.00
2011,05,24,16,15,16.00
2011,05,24,16,16,15.90
2011,05,24,16,17,16.00
2011,05,24,16,18,16.00
2011,05,24,16,19,16.00
2011,05,24,16,20,15.90
2011,05,24,16,21,15.90
2011,05,24,16,22,15.90
2011,05,24,16,23,15.90
2011,05,24,16,24,15.80
2011,05,24,16,25,15.90
2011,05,24,16,26,15.80
2011,05,24,16,27,15.90
2011,05,24,16,28,16.10
2011,05,24,16,29,16.20
2011,05,24,16,30,16.10
2011,05,24,16,31,16.20
2011,05,24,16,32,16.30
2011,05,24,16,33,16.30
2011,05,24,16,34,16.30
2011,05,24,16,35,16.20
2011,05,24,16,36,16.20
2011,05,24,16,37,16.10
2011,05,24,16,38,16.20
2011,05,24,16,39,16.20
2011,05,24,16,40,16.20
2011,05,24,16,41,16.20
2011,05,24,16,42,16.20
2011,05,24,16,43,16.30
2011,05,24,16,44,16.20
2011,05,24,16,45,16.20
2011,05,24,16,46,16.10
2011,05,24,16,47,16.00
2011,05,24,16,48,16.00
2011,05,24,16,49,15.90
2011,05,24,16,50,15.80
2011,05,24,16,51,15.80
2011,05,24,16,52,15.80
2011,05,24,16,53,15.70
2011,05,24,16,54,15.70
2011,05,24,16,55,15.70
2011,05,24,16,56,15.60
2011,05,24,16,57,15.50
2011,05,24,16,58,15.50
2011,05,24,16,59,15.40
2011,05,24,17,00,15.30
2011,05,24,17,01,15.30
2011,05,24,17,02,15.40
2011,05,24,17,03,15.40
2011,05,24,17,04,15.40
2011,05,24,17,05,15.40
2011,05,24,17,06,15.30
2011,05,24,17,07,15.30
2011,05,24,17,08,15.40
2011,05,24,17,09,15.40
2011,05,24,17,10,15.50
2011,05,24,17,11,15.60
2011,05,24,17,12,15.70
2011,05,24,17,13,15.70
2011,05,24,17,14,15.70
2011,05,24,17,15,15.80
2011,05,24,17,16,15.80
2011,05,24,17,17,15.80
2011,05,24,17,18,15.80
2011,05,24,17,19,15.80
2011,05,24,17,20,15.80
2011,05,24,17,21,15.70
2011,05,24,17,22,15.70
2011,05,24,17,23,15.70
2011,05,24,17,24,15.60
2011,05,24,17,25,15.60
2011,05,24,17,26,15.50
2011,05,24,17,27,15.40
2011,05,24,17,28,15.40
2011,05,24,17,29,15.30
2011,05,24,17,30,15.30
2011,05,24,17,31,15.30
2011,05,24,17,32,15.40
2011,05,24,17,33,15.40
2011,05,24,17,34,15.40
2011,05,24,17,35,15.40
2011,05,24,17,36,15.40
2011,05,24,17,37,15.30
2011,05,24,17,38,15.20
2011,05,24,17,39,15.30
2011,05,24,17,40,15.30
2011,05,24,17,41,15.30